sat.trackr.live / text

‹ back to catalog

LEMUR-2-FURIAUS

NORAD 42840 · 2017-042R

PAYLOAD ACTIVE UNKNOWN

§ Identity

Operator
Country
US
Launch date
2017-07-14
Launch site
TYMSC
Launch vehicle
Mass (kg)
RCS (m²)

Purposes: earth_obs

External: N2YO · Heavens-Above · Gunter

§ Orbital elements

Epoch: 2026-09-15T18:16:48.136800Z

Period
93.93 min
Inclination
97.3811°
Eccentricity
0.0007946
Mean motion
15.32980902 rev/d
Perigee alt
461.5 km
Apogee alt
472.4 km
Semi-major
6,845.1 km
B*
5.0043e-4
RAAN
76.9313°
Arg perigee
98.2472°
Mean anomaly
261.9672°
Rev number
50,207

§ Raw data

LEMUR-2-FURIAUS1 42840U 17042R   26258.76166825  .00015894  00000+0  50043-3 0  99972 42840  97.3811  76.9313 0007946  98.2472 261.9672 15.32980902502072

JSON: /api/v1/satellites/42840 · /tle

For live sub-satellite position, see the globe view (requires WebGL).

§ Visibility from observer

Set your observer location to see the next 7 days of passes ≥ 10°. The values pass through the URL so the page stays shareable.

No JS? Fill the form by hand. The geolocation button needs JavaScript.

§ Radio — SatNOGS DB

ModeDescriptionDownlinkUplink
FM Downlink 402.700 MHz
FM Downlink 2 402.670 MHz
BPSK UHF Unknown 400.550 MHz

3 transmitters · refreshed weekly from db.satnogs.org